Terug naar catalogus

FENGYUN 1C DEB

ActiefSSO
NORAD 29989·DEBRIS·🇨🇳 China

Gelanceerd May 10, 1999 vanaf Taiyuan Satellite Launch Center

Loading…

Volgende Passages (komende 24 uur)

TLE

VersSource: Space-Track

Epoch: Sep 14, 2026, 10:21 UTC

1 29989U 99025LP  26257.43173661  .00000173  00000-0  10092-3 0  9991
2 29989  98.6991 234.3686 0124182 126.0124  24.6966 14.16004089 15087

Volg FENGYUN 1C DEB in realtime met AllMySat

Download on the App Store